WO1J Weather Reports


time (UTC)temp
C
wind
direction
speed
KPH
gust
KPH
rain 1hr
cm
rain 24hr
cm
rain mn
cm
humidity
%
barometer
mb
20260507040024 12 239 1.6 3.2 0.03 1.07 1.07 97 1003.9
20260507034558 12 248 1.6 3.2 0.03 1.04 1.04 97 1003.8
20260507033026 12 311 0.0 3.2 0.03 1.04 1.04 97 1003.5
20260507031555 12 201 0.0 6.4 0.03 1.04 1.04 97 1003.3
20260507030020 12 182 1.6 3.2 0.03 1.04 1.04 97 1003.4
20260507024603 12 201 0.0 9.7 0.00 1.02 1.02 97 1003.5
20260507023020 12 186 1.6 11.3 0.00 1.02 1.02 97 1003.6
20260507021552 12 172 0.0 9.7 0.00 1.02 1.02 97 1003.6
20260507020023 12 194 3.2 9.7 0.00 1.02 1.02 97 1003.7
20260507014553 12 194 1.6 9.7 0.00 1.02 1.02 97 1003.7
20260507013038 12 175 1.6 9.7 0.00 1.02 1.02 97 1004.0
20260507011547 12 164 1.6 11.3 0.00 1.02 1.02 97 1003.9
20260507010025 12 156 3.2 9.7 0.00 1.02 1.02 96 1004.0
20260507004553 12 143 4.8 14.5 0.00 1.02 1.02 97 1004.1
20260507003014 12 185 1.6 11.3 0.00 1.02 1.02 97 1004.0
20260507001543 12 175 1.6 17.7 0.00 1.02 1.02 96 1004.0
20260507000005 12 172 3.2 9.7 0.00 1.02 1.02 96 1004.0
20260506234537 12 188 4.8 17.7 0.00 1.02 1.02 96 1004.0
20260506233007 13 157 6.4 19.3 0.00 1.02 1.02 96 1004.0
20260506231533 13 165 11.3 19.3 0.00 1.02 1.02 96 1004.1
20260506230003 13 132 6.4 17.7 0.00 1.02 1.02 96 1004.0
20260506224533 13 181 4.8 16.1 0.03 1.02 1.02 96 1004.4
20260506223059 13 156 8.0 16.1 0.03 1.02 1.02 96 1004.5
20260506221525 13 200 4.8 17.7 0.03 1.02 1.02 96 1004.6
20260506220055 13 203 4.8 16.1 0.05 1.02 1.02 96 1004.8
20260506214537 13 208 4.8 16.1 0.13 0.99 0.99 96 1004.9
20260506213112 13 146 3.2 17.7 0.25 0.99 0.99 96 1004.9
20260506211522 13 114 3.2 19.3 0.30 0.99 0.99 96 1005.1
20260506210053 13 163 8.0 19.3 0.30 0.97 0.97 96 1005.1
20260506204517 13 118 8.0 14.5 0.18 0.84 0.84 95 1005.2
20260506203047 13 166 4.8 12.9 0.13 0.71 0.71 95 1005.2
20260506201506 13 138 3.2 12.9 0.18 0.69 0.69 95 1005.5
20260506200032 13 144 6.4 12.9 0.36 0.66 0.66 95 1005.3
20260506194603 13 130 6.4 11.3 0.56 0.66 0.66 95 1005.7
20260506193027 13 134 3.2 8.0 0.58 0.61 0.61 94 1005.9
20260506191559 13 178 4.8 12.9 0.51 0.51 0.51 94 1005.8
20260506190026 14 155 3.2 9.7 0.30 0.30 0.30 92 1006.4
20260506184555 15 230 4.8 14.5 0.10 0.10 0.10 90 1006.0
20260506183033 15 172 1.6 17.7 0.03 0.03 0.03 86 1006.0
20260506181620 16 150 4.8 14.5 0.00 0.00 0.00 83 1005.7
20260506180027 17 132 6.4 19.3 0.00 0.00 0.00 78 1005.7
20260506174553 17 203 6.4 16.1 0.00 0.00 0.00 77 1005.6
20260506173019 17 167 4.8 14.5 0.00 0.00 0.00 78 1005.9
20260506171545 17 127 8.0 17.7 0.00 0.00 0.00 78 1006.0
20260506170011 17 125 4.8 14.5 0.00 0.00 0.00 79 1006.4
20260506164538 17 117 4.8 11.3 0.00 0.00 0.00 79 1006.6
20260506163001 17 143 4.8 11.3 0.00 0.00 0.00 80 1006.9
20260506161518 17 119 8.0 12.9 0.00 0.00 0.00 80 1007.5
20260506160053 16 134 4.8 9.7 0.00 0.00 0.00 81 1007.8
20260506154517 16 126 1.6 11.3 0.00 0.00 0.00 81 1008.1
20260506153108 16 142 4.8 14.5 0.00 0.00 0.00 81 1008.0
20260506151514 16 158 4.8 11.3 0.00 0.00 0.00 81 1008.1
20260506150050 16 123 4.8 14.5 0.00 0.00 0.00 81 1008.0
20260506144516 16 172 4.8 11.3 0.00 0.00 0.00 80 1007.8
20260506143042 16 140 3.2 11.3 0.00 0.00 0.00 80 1007.5
20260506141513 16 102 1.6 9.7 0.00 0.00 0.00 81 1007.6
20260506140041 17 162 3.2 4.8 0.00 0.00 0.00 79 1008.2
20260506134507 16 152 0.0 6.4 0.00 0.00 0.00 81 1008.3
20260506133027 16 162 0.0 4.8 0.00 0.00 0.00 82 1008.2
20260506131556 15 159 0.0 3.2 0.00 0.00 0.00 82 1008.0
20260506130021 15 148 3.2 4.8 0.00 0.00 0.00 82 1008.2
20260506124551 15 173 0.0 8.0 0.00 0.00 0.00 82 1008.1
20260506123021 15 100 4.8 9.7 0.00 0.00 0.00 83 1008.2
20260506121541 13 124 1.6 6.4 0.00 0.00 0.00 85 1008.5
20260506120018 13 119 3.2 4.8 0.00 0.00 0.00 85 1008.5
20260506114541 13 117 0.0 0.0 0.00 0.00 0.00 86 1008.7
20260506113023 12 131 0.0 0.0 0.00 0.00 0.00 87 1008.8
20260506111539 12 132 0.0 6.4 0.00 0.00 0.00 87 1008.9
20260506110003 12 180 1.6 8.0 0.00 0.00 0.00 87 1009.0
20260506104533 12 146 0.0 4.8 0.00 0.00 0.00 87 1008.9
20260506103057 11 167 0.0 3.2 0.00 0.00 0.00 87 1008.8
20260506101522 11 131 3.2 6.4 0.00 0.00 0.00 87 1008.5
20260506100050 11 159 0.0 4.8 0.00 0.00 0.00 87 1008.5
20260506094514 11 121 0.0 4.8 0.00 0.00 0.00 86 1008.5
20260506093039 12 108 0.0 3.2 0.00 0.00 0.00 86 1008.5
20260506091505 12 150 3.2 8.0 0.00 0.00 0.00 85 1008.6
20260506090024 12 141 1.6 4.8 0.00 0.00 0.00 84 1008.4
20260506084549 12 152 0.0 0.0 0.00 0.00 0.00 84 1008.2
20260506083009 12 209 0.0 3.2 0.00 0.00 0.00 83 1008.3
20260506081533 12 151 3.2 6.4 0.00 0.00 0.00 83 1007.8
20260506080107 13 128 1.6 6.4 0.00 0.00 0.00 83 1008.0
20260506073043 13 215 0.0 9.7 0.00 0.00 0.00 82 1008.0
20260506071505 13 157 3.2 11.3 0.00 0.00 0.00 82 1007.7
20260506061546 13 184 1.6 6.4 0.00 0.00 0.00 81 1007.4
20260506044514 13 221 0.0 4.8 0.00 0.00 0.00 81 1007.5
20260506043040 13 160 3.2 4.8 0.00 0.00 0.00 79 1007.3
20260506041551 14 188 3.2 14.5 0.00 0.00 0.00 78 1007.5